Retour au catalogue

AUREOLE 2

ActifScienceVLEO
NORAD 7003·PAYLOAD·🇫🇷 France

Lancé Dec 26, 1973 depuis Plesetsk Cosmodrome

Loading…

Prochains Passages (prochaines 24 heures)

TLE

FraisSource: Space-Track

Époque: Sep 14, 2026, 14:01 UTC

1 07003U 73107A   26257.58467686  .00160889  11176-4  43681-3 0  9997
2 07003  73.8853 329.3159 0058683 249.5953 109.8972 15.91043400718598

Suivez AUREOLE 2 en temps réel avec AllMySat

Download on the App Store